Miscellaneous Local Product
Issued by NWS Hastings, NE

Home | Current Version | Previous Version | Text Only | Print | Product List | Glossary On
Versions: 1 2 3 4 5 6 7 8 9 10 11 12 13 14 15 16 17 18 19 20 21 22 23 24 25 26 27 28 29 30 31 32 33 34 35 36 37 38 39 40 41 42 43 44 45 46 47 48 49 50
000
AXUS43 KGID 181002
MISGRI

GID CWA HOURLY WEATHER ROUNDUP
NATIONAL WEATHER SERVICE HASTINGS NE
500 AM CDT THU SEP 18 2014

NOTE: "FAIR" INDICATES FEW OR NO CLOUDS BELOW 12,000 FEET WITH NO
SIGNIFICANT WEATHER AND/OR OBSTRUCTIONS TO VISIBILITY.

...SOUTH CENTRAL NEBRASKA...

CITY           SKY/WX    TMP DP  RH WIND       PRES   REMARKS
GRAND ISLAND   FOG       59  58  96 SE6       29.98R VSB 1/4
HASTINGS       FOG       61  59  93 SE9       29.96S VSB 1/2
KEARNEY        CLOUDY    61  61 100 E12       29.97S VSB 3/4
ORD            FOG       52  51  97 CALM      29.96F VSB 1/4
YORK           CLOUDY    59  59 100 SE5       29.98R FOG
AURORA         FOG       58  58 100 CALM      29.98R VSB<1/4
LEXINGTON      FOG       62  61  97 SE9       29.97S VSB 1/4
HOLDREGE       CLOUDY    61  60  96 E12       29.96S FOG
HEBRON         CLOUDY    63  61  94 E7        29.95F FOG

...NEBRASKA PANHANDLE...

CITY           SKY/WX    TMP DP  RH WIND       PRES   REMARKS
CHADRON        CLEAR     49  47  93 SW5       29.91F
ALLIANCE       CLOUDY    62  61  96 S9        29.96S FOG
SCOTTSBLUFF    CLEAR     53  52  96 E9        29.95F
SIDNEY         CLEAR     57  56  96 S7        29.99F FOG

...WESTERN AND NORTH CENTRAL NEBRASKA...

CITY           SKY/WX    TMP DP  RH WIND       PRES   REMARKS
VALENTINE      PTCLDY    60  59  96 S8        29.94S
AINSWORTH      PTCLDY    59  58  97 S12       29.95S
ONEILL         PTCLDY    61  60  96 SE5       29.96R
BROKEN BOW     FOG       60  59  96 CALM      29.97S VSB 1/4
IMPERIAL       FOG       65  64  97 SE6       29.96S VSB 1/2
NORTH PLATTE   FOG       58  57  97 E7        29.96S VSB 1/4
MCCOOK         FOG       63  62  97 E8        29.95R VSB 1/2

...EASTERN NEBRASKA...

CITY           SKY/WX    TMP DP  RH WIND       PRES   REMARKS
NORFOLK        MOCLDY    61  59  93 SE5       29.96F
SO SIOUX CITY  PTCLDY    57  55  93 E5        29.98R
TEKAMAH        PTCLDY    54  52  93 SE3       29.98R
ALBION         PTCLDY    54  52  94 CALM      29.98S FOG
OMAHA EPPLEY   PTCLDY    60  57  89 SE7       29.99R
OFFUTT AFB     CLEAR     57  57 100 E5        29.99R
MILLARD        CLEAR     60  59  95 CALM      29.98S
LINCOLN        CLOUDY    63  60  90 S6        29.99R
NEBRASKA CITY  FOG       62  60  94 SE6       29.99S VSB 1/2
BEATRICE       FOG       62  61  99 E5        29.97S VSB 1
FALLS CITY     CLOUDY    63  63 100 E7        29.98R FOG

...NORTHERN KANSAS...

CITY           SKY/WX    TMP DP  RH WIND       PRES   REMARKS
GOODLAND       FOG       63  63 100 CALM      29.96F VSB 1/4
HILL CITY      CLOUDY    64  63  96 E8        29.92S FOG
NORTON         CLOUDY    63  61  94 E6        29.93S FOG
PHILLIPSBURG   CLOUDY    64  64 100 E9        29.93S FOG
SMITH CENTER   CLOUDY    63  61  94 E8        29.93S FOG
BELOIT         MOCLDY    63  63 100 NE3       29.90R
HAYS           CLOUDY    66  63  88 E12       29.91F
RUSSELL        CLOUDY    68  65  90 E7        29.89F
CONCORDIA      CLOUDY    63  63 100 E10       29.92S FOG
SALINA         MOCLDY    64  61  90 NE5       29.90R
TOPEKA         CLOUDY    65  65 100 E8        29.95F FOG



USA.gov is the U.S. government's official web portal to all federal, state and local government web resources and services.